• en France
  • Liste des pays
  • À 7 jours
  • Température de l'eau
  • Carte satellitaire
  • Carte météo
  • Widgets météo
  • user-avatar
    Se connecter

    Météo par heure à Canillo

    Ce jour, 22 Juin, Vendredi

    Heure Température Précipitation Vent Pression Humidité
    00:00 +12°C° 0 mm 2 m/s 622 mmHg 87%
    01:00 +12°C° 0 mm 2 m/s 622 mmHg 87%
    02:00 +12°C° 0 mm 2 m/s 622 mmHg 86%
    03:00 +10°C° 0 mm 2 m/s 622 mmHg 86%
    04:00 +12°C° 0 mm 2 m/s 622 mmHg 84%
    05:00 +13°C° 0 mm 2 m/s 622 mmHg 83%
    06:00 +13°C° 0 mm 2 m/s 623 mmHg 81%
    07:00 +15°C° 0 mm 2 m/s 623 mmHg 74%
    08:00 +17°C° 0 mm 2 m/s 624 mmHg 66%
    09:00 +19°C° 0 mm 2 m/s 625 mmHg 59%
    10:00 +19°C° 0 mm 2 m/s 625 mmHg 57%
    11:00 +20°C° 0 mm 2 m/s 625 mmHg 55%
    12:00 +21°C° 0 mm 3 m/s 625 mmHg 53%
    13:00 +20°C° 0,1 mm 2 m/s 625 mmHg 56%
    14:00 +19°C° 0,1 mm 2 m/s 624 mmHg 60%
    15:00 +19°C° 0,1 mm 2 m/s 624 mmHg 63%
    16:00 +18°C° 0,2 mm 2 m/s 624 mmHg 67%
    17:00 +17°C° 0,2 mm 2 m/s 623 mmHg 72%
    18:00 +16°C° 0,2 mm 2 m/s 623 mmHg 76%
    19:00 +15°C° 0 mm 2 m/s 623 mmHg 80%
    20:00 +14°C° 0 mm 2 m/s 623 mmHg 84%
    21:00 +13°C° 0 mm 2 m/s 623 mmHg 88%
    22:00 +12°C° 0 mm 2 m/s 623 mmHg 89%
    23:00 +11°C° 0 mm 1 m/s 622 mmHg 90%

    Demain, 23 Juin, Samedi

    Heure Température Précipitation Vent Pression Humidité
    00:00 +11°C° 0 mm 1 m/s 622 mmHg 91%
    01:00 +10°C° 0 mm 1 m/s 622 mmHg 90%
    02:00 +10°C° 0 mm 1 m/s 622 mmHg 89%
    03:00 +10°C° 0 mm 1 m/s 622 mmHg 88%
    04:00 +10°C° 0 mm 1 m/s 622 mmHg 84%
    05:00 +11°C° 0 mm 1 m/s 623 mmHg 80%
    06:00 +12°C° 0 mm 1 m/s 623 mmHg 76%
    07:00 +14°C° 0 mm 1 m/s 624 mmHg 66%
    08:00 +16°C° 0 mm 1 m/s 625 mmHg 57%
    09:00 +19°C° 0 mm 1 m/s 626 mmHg 47%
    10:00 +20°C° 0,1 mm 1 m/s 626 mmHg 46%
    11:00 +20°C° 0,1 mm 2 m/s 626 mmHg 45%
    12:00 +20°C° 0,1 mm 2 m/s 626 mmHg 43%
    13:00 +20°C° 0,4 mm 2 m/s 626 mmHg 46%
    14:00 +20°C° 0,4 mm 2 m/s 625 mmHg 49%
    15:00 +20°C° 0,4 mm 1 m/s 625 mmHg 51%
    16:00 +19°C° 0,3 mm 1 m/s 625 mmHg 56%
    17:00 +18°C° 0,3 mm 1 m/s 624 mmHg 60%
    18:00 +18°C° 0,3 mm 1 m/s 624 mmHg 64%
    19:00 +15°C° 0 mm 1 m/s 623 mmHg 69%
    20:00 +13°C° 0 mm 1 m/s 623 mmHg 75%
    21:00 +12°C° 0 mm 1 m/s 622 mmHg 80%
    22:00 +11°C° 0 mm 1 m/s 622 mmHg 81%
    23:00 +11°C° 0 mm 1 m/s 622 mmHg 83%

    Après-demain, 24 Juin, Dimanche

    Heure Température Précipitation Vent Pression Humidité
    00:00 +11°C° 0 mm 1 m/s 622 mmHg 84%
    01:00 +10°C° 0 mm 1 m/s 621 mmHg 85%
    02:00 +10°C° 0 mm 1 m/s 621 mmHg 85%
    03:00 +10°C° 0 mm 1 m/s 621 mmHg 86%
    04:00 +11°C° 0 mm 1 m/s 621 mmHg 83%
    05:00 +12°C° 0 mm 1 m/s 622 mmHg 81%
    06:00 +13°C° 0 mm 1 m/s 622 mmHg 79%
    07:00 +15°C° 0 mm 1 m/s 623 mmHg 67%
    08:00 +18°C° 0 mm 1 m/s 624 mmHg 56%
    09:00 +20°C° 0 mm 1 m/s 624 mmHg 45%
    10:00 +21°C° 0 mm 1 m/s 625 mmHg 41%
    11:00 +21°C° 0 mm 2 m/s 625 mmHg 38%
    12:00 +23°C° 0 mm 2 m/s 625 mmHg 34%
    13:00 +23°C° 0 mm 2 m/s 625 mmHg 35%
    14:00 +23°C° 0 mm 2 m/s 624 mmHg 36%
    15:00 +23°C° 0 mm 2 m/s 624 mmHg 36%
    16:00 +21°C° 0 mm 2 m/s 623 mmHg 42%
    17:00 +19°C° 0 mm 2 m/s 623 mmHg 49%
    18:00 +18°C° 0 mm 2 m/s 622 mmHg 55%
    19:00 +16°C° 0 mm 2 m/s 622 mmHg 62%
    20:00 +14°C° 0 mm 2 m/s 621 mmHg 69%
    21:00 +12°C° 0 mm 2 m/s 621 mmHg 76%
    22:00 +10°C° 0 mm 2 m/s 621 mmHg 72%
    23:00 +11°C° 0 mm 1 m/s 621 mmHg 69%

    25 Juin, Lundi

    Heure Température Précipitation Vent Pression Humidité
    00:00 +11°C° 0 mm 1 m/s 620 mmHg 65%
    01:00 +10°C° 0 mm 1 m/s 620 mmHg 62%
    02:00 +10°C° 0 mm 1 m/s 620 mmHg 58%
    03:00 +10°C° 0 mm 1 m/s 620 mmHg 55%
    04:00 +11°C° 0 mm 1 m/s 620 mmHg 54%
    05:00 +12°C° 0 mm 1 m/s 621 mmHg 54%
    06:00 +12°C° 0 mm 1 m/s 621 mmHg 53%
    07:00 +15°C° 0 mm 1 m/s 622 mmHg 49%
    08:00 +18°C° 0 mm 1 m/s 623 mmHg 44%
    09:00 +20°C° 0 mm 1 m/s 624 mmHg 39%
    10:00 +21°C° 0 mm 1 m/s 624 mmHg 38%
    11:00 +22°C° 0 mm 1 m/s 625 mmHg 37%
    12:00 +23°C° 0 mm 2 m/s 625 mmHg 36%
    13:00 +23°C° 0 mm 2 m/s 625 mmHg 38%
    14:00 +23°C° 0 mm 2 m/s 625 mmHg 39%
    15:00 +23°C° 0 mm 2 m/s 625 mmHg 41%
    16:00 +21°C° 0 mm 2 m/s 624 mmHg 47%
    17:00 +20°C° 0 mm 1 m/s 624 mmHg 53%
    18:00 +19°C° 0 mm 1 m/s 623 mmHg 60%
    19:00 +16°C° 0 mm 1 m/s 623 mmHg 66%
    20:00 +14°C° 0 mm 1 m/s 622 mmHg 73%
    21:00 +12°C° 0 mm 1 m/s 622 mmHg 80%
    22:00 +12°C° 0 mm 1 m/s 622 mmHg 81%
    23:00 +12°C° 0 mm 1 m/s 621 mmHg 83%

    26 Juin, Mardi

    Heure Température Précipitation Vent Pression Humidité
    00:00 +11°C° 0 mm 1 m/s 621 mmHg 84%
    01:00 +11°C° 0 mm 1 m/s 621 mmHg 85%
    02:00 +11°C° 0 mm 1 m/s 621 mmHg 85%
    03:00 +11°C° 0 mm 1 m/s 620 mmHg 85%
    04:00 +12°C° 0 mm 1 m/s 621 mmHg 82%
    05:00 +13°C° 0 mm 1 m/s 621 mmHg 79%
    06:00 +14°C° 0 mm 1 m/s 622 mmHg 75%
    07:00 +16°C° 0 mm 1 m/s 623 mmHg 65%
    08:00 +19°C° 0 mm 1 m/s 623 mmHg 56%
    09:00 +21°C° 0 mm 1 m/s 624 mmHg 46%
    10:00 +22°C° 0 mm 1 m/s 624 mmHg 44%
    11:00 +23°C° 0 mm 2 m/s 625 mmHg 43%
    12:00 +23°C° 0 mm 2 m/s 625 mmHg 42%
    13:00 +23°C° 0,4 mm 2 m/s 624 mmHg 45%
    14:00 +23°C° 0,4 mm 2 m/s 624 mmHg 48%
    15:00 +21°C° 0,4 mm 2 m/s 624 mmHg 51%
    16:00 +20°C° 0,4 mm 2 m/s 623 mmHg 57%
    17:00 +19°C° 0,4 mm 2 m/s 623 mmHg 63%
    18:00 +19°C° 0,4 mm 1 m/s 623 mmHg 69%
    19:00 +16°C° 0,3 mm 1 m/s 622 mmHg 75%
    20:00 +15°C° 0,3 mm 1 m/s 622 mmHg 82%
    21:00 +13°C° 0,3 mm 1 m/s 622 mmHg 88%
    22:00 +13°C° 0,3 mm 1 m/s 622 mmHg 88%
    23:00 +13°C° 0,3 mm 1 m/s 622 mmHg 89%

    27 Juin, Mercredi

    Heure Température Précipitation Vent Pression Humidité
    00:00 +12°C° 0,3 mm 1 m/s 622 mmHg 90%
    01:00 +12°C° 0,1 mm 1 m/s 621 mmHg 90%
    02:00 +12°C° 0,1 mm 1 m/s 621 mmHg 90%
    03:00 +11°C° 0,1 mm 1 m/s 621 mmHg 90%
    04:00 +12°C° 0 mm 1 m/s 622 mmHg 87%
    05:00 +13°C° 0 mm 1 m/s 622 mmHg 85%
    06:00 +13°C° 0 mm 1 m/s 622 mmHg 83%
    07:00 +15°C° 0,3 mm 1 m/s 623 mmHg 76%
    08:00 +17°C° 0,3 mm 2 m/s 624 mmHg 70%
    09:00 +18°C° 0,3 mm 2 m/s 624 mmHg 64%
    10:00 +19°C° 0,8 mm 2 m/s 625 mmHg 62%
    11:00 +19°C° 0,8 mm 2 m/s 625 mmHg 60%
    12:00 +20°C° 0,8 mm 2 m/s 625 mmHg 58%
    13:00 +20°C° 1,5 mm 2 m/s 625 mmHg 59%
    14:00 +20°C° 1,5 mm 1 m/s 624 mmHg 61%
    15:00 +20°C° 1,5 mm 1 m/s 624 mmHg 62%
    16:00 +19°C° 0,7 mm 1 m/s 624 mmHg 66%
    17:00 +18°C° 0,7 mm 1 m/s 623 mmHg 71%
    18:00 +18°C° 0,7 mm 1 m/s 623 mmHg 75%
    19:00 +15°C° 0,5 mm 1 m/s 623 mmHg 78%
    20:00 +14°C° 0,5 mm 1 m/s 623 mmHg 81%
    21:00 +13°C° 0,5 mm 1 m/s 623 mmHg 84%
    22:00 +13°C° 0,2 mm 1 m/s 622 mmHg 84%
    23:00 +12°C° 0,2 mm 1 m/s 622 mmHg 84%
    Voir plus